CW5111 Weather Reports


time (UTC)temp
C
wind
direction
speed
KPH
gust
KPH
rain 1hr
cm
rain 24hr
cm
rain mn
cm
humidity
%
barometer
mb
20260506010004 7 15 3.2 11.3 0.00 0.00 0.00 74 1014.7
20260506004503 7 14 4.8 12.9 0.00 0.00 0.00 74 1014.6
20260506003003 7 8 4.8 19.3 0.00 0.00 0.00 75 1014.6
20260506001503 7 26 4.8 12.9 0.00 0.00 0.00 81 1014.6
20260506000004 8 17 4.8 12.9 0.00 0.00 0.00 80 1014.6
20260505234503 8 28 4.8 11.3 0.00 0.00 0.00 79 1014.5
20260505233003 8 22 4.8 17.7 0.00 0.00 0.00 77 1014.5
20260505231503 8 15 4.8 16.1 0.00 0.00 0.00 77 1014.6
20260505230005 8 36 3.2 11.3 0.00 0.00 0.00 77 1014.5
20260505224503 8 52 3.2 12.9 0.00 0.00 0.00 76 1014.6
20260505221504 9 43 3.2 12.9 0.00 0.00 0.00 77 1014.5
20260505220005 9 11 4.8 14.5 0.00 0.00 0.00 77 1014.5
20260505214504 9 40 4.8 11.3 0.00 0.00 0.00 80 1014.4
20260505213003 9 12 4.8 11.3 0.00 0.00 0.00 80 1014.4
20260505211503 10 19 4.8 12.9 0.00 0.00 0.00 79 1014.4
20260505203003 10 15 4.8 14.5 0.00 0.00 0.00 76 1014.1
20260505201504 11 11 4.8 9.7 0.00 0.00 0.00 74 1014.1
20260505200004 11 354 4.8 8.0 0.00 0.00 0.00 66 1013.9
20260505194503 11 355 6.4 11.3 0.00 0.00 0.00 65 1013.7
20260505193003 11 352 6.4 12.9 0.00 0.00 0.00 64 1013.6
20260505191504 11 353 4.8 12.9 0.00 0.00 0.00 66 1013.6
20260505184504 11 353 6.4 16.1 0.00 0.00 0.00 66 1013.3
20260505183003 12 354 4.8 12.9 0.00 0.00 0.00 67 1013.2
20260505181504 12 350 4.8 12.9 0.00 0.00 0.00 66 1013.2
20260505180004 12 352 4.8 12.9 0.00 0.00 0.00 63 1013.2
20260505174504 12 352 6.4 12.9 0.00 0.00 0.00 63 1013.2
20260505173003 12 352 6.4 12.9 0.00 0.00 0.00 62 1013.2
20260505171504 12 351 4.8 16.1 0.00 0.00 0.00 63 1013.3
20260505170004 12 352 4.8 16.1 0.00 0.00 0.00 64 1013.3
20260505164504 12 350 4.8 14.5 0.00 0.00 0.00 64 1013.3
20260505163003 12 352 6.4 17.7 0.00 0.00 0.00 63 1013.2
20260505161504 13 351 6.4 16.1 0.00 0.00 0.00 61 1013.2
20260505153004 13 352 6.4 17.7 0.00 0.00 0.00 61 1013.4
20260505151503 13 353 6.4 16.1 0.00 0.00 0.00 61 1013.4
20260505123003 15 342 4.8 17.7 0.00 0.00 0.00 54 1013.5
20260505121504 15 348 8.0 16.1 0.00 0.00 0.00 54 1013.6
20260505120005 14 351 6.4 14.5 0.00 0.00 0.00 56 1013.7
20260505114503 15 352 6.4 17.7 0.00 0.00 0.00 54 1013.6
20260505113003 14 353 6.4 17.7 0.00 0.00 0.00 55 1013.7
20260505111503 13 346 6.4 12.9 0.00 0.00 0.00 58 1013.8
20260505100005 13 352 4.8 11.3 0.00 0.00 0.00 63 1014.2
20260505093004 13 357 6.4 14.5 0.00 0.00 0.00 63 1014.3
20260505091504 13 351 4.8 17.7 0.00 0.00 0.00 65 1014.2
20260505084503 13 353 6.4 17.7 0.00 0.00 0.00 67 1014.4
20260505081504 11 355 4.8 14.5 0.00 0.00 0.00 75 1014.6
20260505080005 10 353 3.2 12.9 0.00 0.00 0.00 79 1014.6
20260505074504 9 346 4.8 12.9 0.00 0.00 0.00 80 1014.6
20260505073004 9 354 6.4 16.1 0.00 0.00 0.00 83 1014.6
20260505070005 8 352 6.4 14.5 0.00 0.00 0.00 84 1014.6
20260505064503 9 354 4.8 14.5 0.00 0.00 0.00 83 1014.7
20260505063004 9 355 3.2 11.3 0.00 0.00 0.00 83 1014.8
20260505061503 9 354 4.8 12.9 0.00 0.00 0.00 83 1014.6
20260505060005 8 349 3.2 12.9 0.00 0.00 0.00 86 1014.6
20260505054503 7 349 3.2 8.0 0.00 0.00 0.00 88 1014.5
20260505051504 7 351 3.2 8.0 0.00 0.00 0.00 88 1014.5